Location: Usti nad Labem
(50.6670°N, 14.0330°E)
Time: 00:55:30
(UTC+01:00)

ISS - Visible Passes

Search period start: 06 March 2015 00:00
Search period end: 16 March 2015 00:00
Orbit: 397 x 408 km, 51.6° (Epoch: 05 March)

Date Brightness Start Highest point End Pass type
(mag) Time Alt. Az. Time Alt. Az. Time Alt. Az.
13 Mar -0.9 05:01:03 10° S 05:03:21 18° SE 05:05:41 10° E visible
14 Mar -0.5 04:09:45 11° SSE 04:10:29 11° SE 04:11:36 10° ESE visible
14 Mar -2.5 05:43:12 10° SW 05:46:20 48° SSE 05:49:29 10° E visible
15 Mar -1.9 04:51:29 18° SSW 04:53:19 31° SSE 04:56:15 10° E visible
